www.pogodaiklimat.ru

Погода и климат >> Архив погоды >> Мексика >> Tepehuanes


ПОГОДА в Tepehuanes

  • Прогноз погоды в Tepehuanes
  • Монитор погоды в Tepehuanes
  • Климат города

АРХИВ ПОГОДЫ в Tepehuanes

Время (UTC), дата Ветер
(напр.,м/с)
 
Видим.   Явления Облачность Т
(С)
Тd
(С)
f
(%)
Тe
(С)
Тes
(С)
Комфортность P
(гПа)
Po
(гПа)
Тmin
(С)
Tmax
(С)
R
(мм)
R24
(мм)
S
(см)
15 14.10 ЮВ 2 10 км ясно +26.0 +7.1 30 +26 +29 жарко 1013.5 819.3 +31.0
00 15.10 ЮВ 2 10 км ясно +26.0 +7.1 30 +26 +26 жарко 1013.5 819.3 +31.0
03 15.10 З 1 1000 м ясно +18.5 +9.7 57 +20 +20 1016.6 821.8
12 15.10 штиль 0 1000 м ясно +10.0 +9.0 93 +9 +9 1019.0 823.7 +9.0 +31.0
15 15.10 штиль 0 10 км ясно +15.1 +10.7 75 +15 +19 1021.0 825.3
18 15.10 В 2 10 км 6/6 800 м
[Cu med, cong]
+26.2 +11.0 39 +27 +33 жарко 1020.0 824.5 +9.0 +27.5
21 15.10 СВ 3 10 км 6/5 800 м
[Frnb]
+28.7 +6.4 24 +28 +32 жарко 1017.7 822.6
00 16.10 З 3 10 км 5/5 600 м
[Cu med, cong]
+23.0 +10.2 44 +25 +25 комфорт 1017.2 822.2 +9.0 +30.0
12 16.10 штиль 0 1000 м ясно +10.6 +8.9 89 +10 +10 1022.9 826.8 +9.5 +30.0
15 16.10 штиль 0 10 км ясно +14.9 +10.4 74 +15 +18 1023.7 827.5
21 16.10 ЮВ 3 10 км 4/4 800 м
[Cu med, cong]
+25.4 +9.0 35 +26 +31 жарко 1019.6 824.2
00 17.10 ЮВ 3 10 км ясно +23.8 +8.8 38 +24 +25 комфорт 1019.3 824.0 +9.0 +29.0
12 17.10 штиль 0 500 м ясно +8.0 +7.2 95 +7 +7 1022.2 826.3 +7.3 +29.0
15 17.10 С 1 10 км 1/1 1200 м
[Cu hum]
+12.5 +8.5 77 +13 +15 1023.8 827.6
18 17.10 ЮВ 1 10 км 1/1 1200 м
[Cu hum]
+23.0 +9.8 43 +25 +39 комфорт 1022.1 826.2 +7.3 +24.0
21 17.10 В 4 10 км 1/1 960 м
[Cu med, cong]
+25.3 +8.1 33 +25 +32 комфорт 1018.2 823.1
00 18.10 В 3 10 км 1/1 600 м
[Cu med, cong]
+24.7 +9.0 37 +25 +26 комфорт 1017.2 822.3 +7.3 +27.5
03 18.10 штиль 0 200 м 1/1 960 м
[Cu med, cong]
+17.1 +9.5 61 +17 +17 1019.1 823.8
12 18.10 штиль 0 300 м ясно +7.7 +7.2 97 +7 +7 1020.0 824.5 +6.8 +27.5
15 18.10 штиль 0 10 км 3/0
[Ci]
+11.8 +7.8 76 +11 +15 1021.2 825.5
18 18.10 ЮВ 3 10 км 1/1 1000 м
[Cu med, cong]
+24.0 +8.4 37 +25 +34 комфорт 1019.5 824.1 +6.8 +25.2
21 18.10 С 1 10 км 3/3 1000 м
[Cu med, cong]
+29.2 +1.7 17 +27 +35 жарко 1015.6 820.9
00 19.10 ЮВ 4 10 км 4/3 600 м
[Sc diur, vesp Ci]
+25.2 +4.9 27 +25 +25 комфорт 1014.8 820.3 +6.8 +30.8
03 19.10 СЗ 2 100 м 8/8 540 м
[Cb cap]
+18.7 +10.8 60 +20 +20 1017.3 822.4
12 19.10 штиль 0 300 м ясно +11.0 +9.3 89 +10 +10 1016.8 821.9 +10.0 +30.8
15 19.10 штиль 0 10 км 1/0
[Ci sp]
+13.5 +9.1 75 +13 +17 1018.2 823.0

 

Местоположение метеостанции Tepehuanes (Мексика): широта 25.34 долгота -105.72 высота над уровнем моря 1810 м.

В архиве по умолчанию представлена погода в Tepehuanes за последнюю неделю. Архивные данные за месяц целиком и за предыдущие месяцы, начиная с января 2011 года, Вы можете получить, выбрав интересующий диапазон дат из раскрывающегося списка и нажав кнопку "Ввод!".

Внимание! Время в таблицах - всемирное. Для получения местного времени необходимо прибавить поправку, которая в Tepehuanes равна -6 ч.

Смотрите также архив погоды в соседних городах и на ближайших метеорологических станциях:

Погода в Hidalgo del Parral (Мексика) (177 км)
Погода в Culiacan (Мексика) (180 км)
Погода в Durango (Мексика) (183 км)
Погода в Torreon (Мексика) (234 км)
Погода в Colonia Juan Carras-Co (Мексика) (248 км)
Погода в Sombrerete (Мексика) (287 км)
Погода в Choix (Мексика) (292 км)
Погода в Chihuahua University (Мексика) (367 км)
Погода в Chihuahua (Мексика) (375 км)
Погода в Huejucar (Мексика) (407 км)

Пояснения к столбцам:

Ветер - указаны скорость ветра в м/с - средняя за 10 мин, порывы в срок и между сроками (в фигурных скобках) и направление, откуда дует ветер: С - северный, СВ - северо-восточный, В - восточный, ЮВ - юго-восточный, Ю - южный, ЮЗ - юго-западный, З - западный, СЗ - северо-западный.
Видимость - горизонтальная дальность видимости в метрах или километрах. При видимости от 1 до 10 км при отсутствии осадков обычно наблюдается дымка, при ухудшении видимости до 1 км и менее - туман. В сухую погоду видимость может ухудшаться дымом, пылью или мглою.
Явления - указаны атмосферные явления, наблюдавшиеся в срок или в последний час перед сроком; фигурными скобками обозначены явления, наблюдавшиеся между сроками (за 1-3 часа до срока); квадратными скобками обозначены град или гололедные отложения с указанием их диаметра в мм.
Облачность - указаны через наклонную черту общая и нижняя облачность в баллах и высота нижней границы облаков в метрах; квадратными скобками обозначены формы облаков: Ci - перистые, Cs - перисто-слоистые, Cc - перисто-кучевые, Ac - высококучевые, As - высокослоистые, Sc - слоисто-кучевые, Ns - слоисто-дождевые, Cu - кучевые, Cb - кучево-дождевые. Подробнее классификацию облаков см. в Атласе облаков (PDF).
T - Температура воздуха - температура, измеренная на высоте 2 м над землей.
Td - Температура точки росы - температура, при понижении до которой содержащийся в воздухе водяной пар достигнет насыщения.
f - Относительная влажность воздуха - влажноcть воздуха, измеренная на высоте 2 м над землей.
Te - Эффективная температура - температура, которую ощущает одетый по сезону человек в тени. Характеристика душности погоды. При расчете учитывается влияние влажности воздуха и скорости ветра на теплоощущения человека.
Tes - Эффективная температура на солнце - температура, которую ощущает человек, с поправкой на солнечный нагрев. Характеристика знойности погоды. Зависит от высоты солнца над горизонтом, облачности и скорости ветра. Ночью, в пасмурную погоду, а также при ветре 12 м/с и более поправка равна нулю.
P - Атмосферное давление - приведенное к уровню моря атмосферное давление.
Po - Атмосферное давление - измеренное на уровне метеостанции атмосферное давление.
Tmin - Минимальная температура - минимум температуры воздуха на высоте 2 м над землей.
Tmax - Максимальная температура - максимум температуры воздуха на высоте 2 м над землей.
R - Количество осадков - Количество выпавших осадков за период времени, мм. При наведении курсора мыши на число - период времени, за который выпало указанное количество осадков.
R24 - Количество осадков - Количество выпавших осадков за 24 часа, мм.
S - Снежный покров - Высота снежного покрова, см. При наведении курсора мыши на число - состояние снежного покрова и степень покрытия местности в баллах.